Location: Bothwell
(42.3833°S, 147.0000°E)
Time: 02:19:06
(UTC+10:00)

O/OREOS (USA 219) - Visible Passes

Search period start: 22 September 2023 00:00
Search period end: 02 October 2023 01:00
Orbit: 621 x 646 km, 72.0° (Epoch: 22 May)

Date Brightness Start Highest point End Pass type
(mag) Time Alt. Az. Time Alt. Az. Time Alt. Az.
22 Sep ? 03:39:47 69° ESE 03:39:47 69° ESE 03:43:57 10° SSE visible
22 Sep ? 05:17:15 11° W 05:19:22 14° SW 05:21:45 10° SSW visible
23 Sep ? 02:24:18 13° ESE 02:24:18 13° ESE 02:25:21 10° ESE visible
23 Sep ? 04:01:46 49° SW 04:01:46 49° SW 04:05:55 10° SSE visible
24 Sep ? 02:46:13 24° ESE 02:46:13 24° ESE 02:48:26 10° SE visible
24 Sep ? 04:23:41 24° WSW 04:23:45 24° WSW 04:27:30 10° S visible
25 Sep ? 03:08:05 35° SSE 03:08:05 35° SSE 03:10:46 10° SSE visible
25 Sep ? 04:45:32 12° WSW 04:46:15 13° SW 04:48:16 10° SSW visible
26 Sep ? 03:29:54 32° SSW 03:29:54 32° SSW 03:32:42 10° S visible
27 Sep ? 02:14:13 17° SE 02:14:13 17° SE 02:15:19 10° SE visible
27 Sep ? 03:51:39 20° SW 03:51:39 20° SW 03:54:12 10° S visible
28 Sep ? 02:35:56 22° SSE 02:35:56 22° SSE 02:37:36 10° SSE visible
28 Sep ? 04:13:23 11° SW 04:13:23 11° SW 04:14:42 10° SSW visible
29 Sep ? 02:57:38 22° S 02:57:38 22° S 02:59:27 10° S visible
30 Sep ? 01:41:51 12° SE 01:41:51 12° SE 01:42:11 10° SE visible
30 Sep ? 03:19:17 16° SSW 03:19:17 16° SSW 03:20:53 10° S visible
01 Oct ? 03:03:29 16° SSE 03:03:29 16° SSE 03:04:24 10° SSE visible
01 Oct ? 04:40:56 10° SW 04:40:56 10° SW 04:40:56 10° SW visible
